Temperature
23 24 24 24 24 24 24 24 24 24 23 23 23 23 24 22 22 22 22 21 21 20 19 19 18 18 18 17 17 17 17 16 16 16 16 15 15 15 15 15 15 15 15 14
23 23 24 24 23 23 24 23 24 23 23 23 23 23 24 23 22 22 22 22 21 20 19 19 18 18 18 17 17 17 17 16 16 16 16 16 15 15 15 15 15 15 14 14
23 24 23 23 23 23 23 23 24 23 23 23 23 24 24 24 22 21 21 21 21 20 20 19 18 18 18 17 17 17 17 16 16 16 16 16 15 15 15 15 14 14 14 14
23 23 23 23 23 23 23 23 23 23 23 23 23 23 24 24 23 22 21 21 20 20 19 19 18 18 18 17 17 17 17 16 16 16 16 16 15 15 15 14 14 14 14 14
23 23 23 23 23 23 23 23 23 23 23 23 23 23 24 24 23 23 22 21 20 19 19 19 18 18 18 17 17 17 17 16 16 16 16 15 15 15 15 14 14 14 14 14
23 23 23 23 23 23 22 23 22 23 23 22 23 23 24 25 24 24 23 21 20 19 19 18 18 18 17 17 17 17 17 16 16 16 16 15 15 15 15 14 14 14 14 13
23 23 23 23 23 22 23 23 22 22 22 23 23 23 24 24 23 23 22 21 20 19 19 18 17 17 17 17 17 17 17 16 16 16 16 15 15 15 14 14 14 14 13 13
22 22 23 23 23 23 23 23 22 22 22 23 22 23 24 23 22 21 21 20 20 19 18 18 17 17 17 17 17 17 17 16 16 16 15 15 15 15 14 14 14 13 13 13
23 22 22 22 23 23 23 23 23 23 23 22 23 23 23 22 22 21 21 20 19 19 18 18 17 17 17 17 17 17 17 16 16 16 15 15 15 14 14 14 14 13 13 13
23 22 22 22 22 22 23 23 23 22 21 22 22 23 23 22 22 22 21 21 20 19 18 18 17 17 17 17 17 17 16 16 16 15 15 15 15 15 14 14 14 13 13 13
22 22 22 22 22 22 22 22 22 22 22 21 22 23 23 23 22 22 22 20 19 19 18 18 17 17 17 17 17 17 16 16 15 15 15 15 14 14 14 14 13 13 13 12
21 22 22 22 22 21 22 23 22 22 22 22 22 22 22 22 22 21 20 20 19 18 18 17 17 17 16 16 16 16 16 16 15 15 15 15 14 14 14 13 13 13 12 12
20 21 21 21 21 21 21 22 22 22 22 21 21 22 22 21 21 20 20 19 18 18 17 17 17 16 16 16 16 16 16 15 15 15 15 14 14 14 14 13 13 13 12 12
19 21 21 21 21 21 21 21 21 21 21 21 22 22 22 21 21 20 19 19 18 17 17 17 16 16 16 16 16 16 15 15 15 15 14 14 14 14 13 13 13 12 12 12
19 21 21 21 21 20 21 21 20 21 21 21 22 22 22 21 21 20 19 18 17 17 16 16 16 16 15 15 15 15 15 15 14 14 14 14 13 13 13 13 12 12 12 11
19 20 20 20 20 20 20 20 20 20 20 21 21 21 21 20 19 19 18 18 17 16 16 16 15 15 15 15 15 15 15 14 14 14 13 13 13 13 13 12 12 12 11 11
19 19 19 20 20 19 19 20 20 20 20 20 20 21 20 20 19 18 18 17 16 16 16 15 15 15 15 14 14 14 14 14 13 13 13 13 13 13 12 12 12 11 11 11
18 18 19 19 19 18 20 20 19 19 19 20 20 20 19 19 18 17 17 16 16 15 15 15 15 14 14 14 14 14 13 13 13 13 13 13 12 12 12 12 11 11 11 11
18 18 18 18 18 19 19 19 19 19 19 20 19 19 18 17 17 17 16 15 15 15 14 14 14 14 14 14 14 13 13 13 12 12 12 12 12 12 12 11 11 11 10 10
16 17 18 18 18 18 19 19 18 18 19 19 18 18 18 17 18 19 16 15 14 14 14 14 14 13 13 13 13 13 12 12 12 12 12 12 12 11 11 11 11 10 10 10
16 16 17 17 18 19 19 17 17 18 19 18 17 17 17 17 17 16 14 14 14 14 13 13 13 13 12 12 12 12 12 12 12 12 11 11 11 11 11 11 10 10 10 10
17 17 17 17 17 18 17 17 18 18 17 16 16 16 15 15 14 14 13 13 13 13 13 12 12 12 12 11 11 11 11 11 11 11 11 11 11 11 10 10 10 10 9 9
16 17 17 17 18 17 16 16 16 15 16 16 15 15 14 14 13 13 12 12 12 12 12 12 12 12 11 11 11 11 11 11 11 11 10 10 10 10 10 10 10 9 9 9
16 15 16 16 17 16 15 14 14 14 14 14 14 14 13 13 13 12 12 12 12 12 12 11 11 11 11 11 11 11 10 10 10 10 10 10 10 10 9 9 9 9 9 8
15 15 15 16 16 15 14 14 14 13 13 13 13 13 12 12 12 12 12 12 11 11 11 11 10 10 10 10 10 10 10 10 9 9 9 9 9 9 9 9 9 8 8 8
15 15 15 16 16 16 15 14 14 13 13 13 13 12 12 12 12 11 11 11 11 11 10 10 10 10 10 10 10 10 9 9 9 9 8 8 8 8 8 8 8 8 8 8
Wind_Speed
6 8 8 7 7 4 4 5 5 4 3 6 7 8 6 7 8 9 9 9 10 10 8 8 8 8 7 6 6 6 5 5 4 3 3 2 2 2 2 2 2 2 2 2
7 8 6 4 6 6 7 7 6 3 3 5 7 9 8 7 9 9 9 10 10 9 9 9 9 9 8 8 7 6 6 5 5 3 3 2 2 1 1 1 2 2 2 2
9 3 5 6 8 9 9 8 6 5 3 5 7 8 8 6 7 8 9 9 9 10 10 10 10 9 9 8 8 6 6 6 5 5 3 3 2 2 2 1 1 1 2 2
7 4 6 8 8 8 8 5 6 6 6 5 5 6 5 6 7 8 9 9 9 10 10 10 10 10 10 9 8 8 7 6 6 6 5 4 3 2 2 1 1 1 1 1
5 5 7 8 7 8 4 3 5 7 8 8 7 7 4 5 6 7 8 8 9 9 10 10 10 10 10 9 8 8 8 7 6 6 6 5 4 2 2 2 2 2 1 1
5 3 5 5 4 6 5 5 5 6 7 8 6 7 5 4 4 3 5 7 8 8 9 9 8 9 9 8 8 8 8 7 7 7 6 5 4 3 2 2 2 2 2 1
7 6 5 5 6 7 8 7 5 6 6 5 3 6 4 0 1 3 3 4 6 7 8 8 8 8 9 9 9 9 9 8 8 7 7 6 5 4 4 3 3 3 2 2
7 7 6 6 7 6 9 9 6 4 5 3 4 6 2 1 1 2 3 2 4 6 6 7 8 8 8 9 9 9 10 9 8 8 7 6 5 4 3 4 3 3 2 2
6 5 4 4 4 6 7 9 7 7 7 7 5 4 3 1 1 1 2 2 3 5 6 7 7 7 7 8 9 10 9 9 9 8 7 6 5 5 4 4 3 3 2 2
5 5 5 5 6 3 5 5 6 7 5 7 6 7 4 2 2 1 1 2 2 4 5 6 6 6 6 6 7 9 9 9 8 8 7 6 6 5 5 4 4 3 3 3
6 7 5 6 7 8 7 7 7 6 6 6 6 3 0 2 2 2 1 1 2 3 4 5 6 6 5 5 6 7 8 8 8 8 8 7 6 5 5 5 4 4 4 4
5 6 7 7 4 4 7 8 9 8 7 7 7 4 2 1 2 2 2 2 1 2 3 4 5 5 5 5 5 6 7 8 8 8 7 7 6 5 5 5 5 5 4 4
4 6 7 6 6 7 7 8 9 8 8 9 9 5 3 2 1 2 2 2 1 1 2 3 4 4 5 5 5 6 7 7 7 7 7 7 7 6 6 5 5 5 5 4
4 7 9 9 5 4 8 9 10 11 10 11 12 11 6 5 4 4 3 2 1 1 1 2 3 3 4 4 5 5 6 6 7 7 7 7 7 6 6 5 5 5 5 5
4 7 8 8 7 7 9 10 11 13 14 13 12 11 8 7 6 5 3 2 1 1 1 1 2 3 3 4 4 5 5 6 6 7 7 6 6 5 5 5 5 5 5 4
3 6 6 8 7 8 11 12 12 13 13 14 13 11 7 6 4 4 3 2 2 2 2 2 1 2 3 3 4 4 5 5 6 6 6 6 5 5 5 5 5 5 4 4
4 5 6 8 6 7 11 10 11 9 10 10 11 8 5 4 4 4 3 3 3 3 2 2 2 2 2 3 4 4 5 5 6 6 5 5 5 5 5 5 5 5 5 4
6 7 5 6 6 10 4 1 4 7 8 8 8 7 5 5 4 3 2 3 3 2 2 2 2 2 1 2 3 3 4 5 5 5 4 4 4 4 5 5 5 5 4 4
7 7 5 6 8 9 4 3 4 6 7 6 7 6 5 2 3 3 1 2 3 3 2 1 1 1 2 2 4 4 4 4 4 4 4 4 4 4 5 5 5 5 5 4
4 7 7 7 7 7 3 2 2 4 6 2 3 3 3 3 5 2 2 2 3 2 1 1 0 1 2 2 3 5 4 4 4 3 3 3 4 4 5 5 5 4 4 4
5 6 9 10 9 7 2 2 4 6 2 1 1 2 3 4 4 3 2 2 2 2 2 1 1 1 1 2 2 4 4 3 3 3 3 3 4 4 4 4 4 4 4 4
7 7 8 8 9 7 3 5 5 3 2 1 2 2 3 3 2 2 2 2 1 2 2 1 1 1 1 2 2 3 3 3 3 3 3 3 3 3 3 4 4 4 4 5
7 6 5 6 5 2 2 3 3 3 3 3 3 3 3 3 3 2 2 1 0 1 1 1 1 1 1 1 1 1 2 2 3 3 3 3 3 3 3 4 4 4 4 4
5 4 5 7 7 5 4 4 4 4 4 4 4 4 4 4 3 3 2 1 1 1 1 1 1 1 0 0 1 1 1 2 3 3 3 3 3 2 3 3 3 4 4 4
6 5 7 10 8 6 6 6 5 4 4 4 3 3 4 4 4 3 3 2 1 1 1 1 1 1 0 0 0 1 1 2 3 3 3 2 2 2 2 2 2 3 3 3
8 9 9 9 8 7 7 5 5 5 5 5 4 3 3 3 4 3 3 2 2 2 1 1 1 1 1 1 0 0 1 2 3 3 3 2 2 2 2 2 1 0 2 1
Wind_Direction
188 201 202 201 213 234 220 227 229 225 199 225 243 255 246 218 221 225 220 212 207 204 196 189 192 194 191 191 193 183 180 175 170 167 168 160 143 126 102 76 69 69 62 57
191 209 210 208 205 217 223 232 235 218 209 243 260 262 253 230 224 225 223 215 210 207 198 193 194 196 198 194 194 189 189 181 180 180 179 173 155 146 115 92 75 66 63 53
212 185 184 199 204 216 227 239 245 243 222 234 266 256 234 221 221 221 225 223 217 211 209 200 197 199 199 200 197 192 191 185 181 176 165 151 146 160 149 137 118 68 62 63
223 204 197 209 214 222 229 232 241 235 241 247 247 273 237 213 216 218 218 216 216 212 210 207 202 201 201 203 197 195 191 188 182 181 182 182 192 194 200 188 158 144 106 84
205 195 202 215 217 220 225 203 221 233 248 259 242 262 249 198 221 218 213 209 211 209 208 206 206 204 203 200 196 196 191 190 184 186 189 199 202 207 192 177 169 174 150 118
227 204 222 221 202 201 175 174 186 219 241 249 242 248 257 211 224 218 206 208 209 206 204 204 203 202 201 198 194 195 194 193 189 190 194 201 202 202 191 193 190 193 181 180
210 202 200 205 188 182 203 218 226 222 224 242 198 242 255 35 265 258 248 222 206 200 198 198 197 196 197 197 195 195 196 196 194 197 202 204 206 206 201 202 203 207 201 198
216 206 191 202 215 210 212 227 243 255 251 251 208 240 240 90 281 262 255 229 200 191 191 192 194 197 199 200 200 200 200 200 196 199 205 208 205 208 209 208 210 214 211 205
226 210 165 190 213 221 210 223 250 267 269 265 244 232 248 192 216 220 211 202 201 193 192 194 193 194 199 202 203 204 203 200 199 200 201 203 204 204 209 211 208 211 206 196
241 236 186 175 182 195 240 212 215 236 252 253 249 245 239 189 207 200 212 214 205 196 193 193 192 193 197 200 201 201 200 199 197 197 196 195 200 202 206 206 203 204 202 194
233 233 205 192 212 214 193 203 222 234 247 260 262 249 204 237 236 246 254 246 214 199 197 192 190 193 196 193 194 196 196 194 193 195 194 194 198 200 203 205 204 204 202 198
223 238 231 222 211 240 231 227 224 237 240 247 267 269 129 234 271 268 284 291 239 207 199 195 190 189 191 193 194 195 197 195 192 194 194 196 199 202 206 210 207 203 204 205
205 228 233 221 202 198 215 221 228 242 255 248 252 255 146 199 255 266 285 301 257 217 193 187 183 185 191 193 194 194 196 195 193 191 195 195 199 204 209 212 209 207 207 208
237 234 241 249 256 231 224 220 221 230 246 252 251 260 255 252 264 277 284 287 277 229 193 193 190 189 191 196 193 194 195 192 189 189 195 200 202 202 205 207 206 206 208 211
238 245 244 252 258 246 245 243 231 236 249 258 264 263 272 275 277 278 278 275 268 230 210 210 206 196 194 194 191 192 193 190 187 187 193 201 201 196 194 196 199 201 205 211
236 247 247 243 238 244 248 247 243 243 250 254 260 266 284 286 275 269 273 266 259 249 230 225 226 215 205 198 191 186 185 185 186 190 193 193 195 191 191 196 195 192 196 203
219 236 246 253 246 250 249 244 236 235 240 245 253 265 270 268 263 264 277 270 269 270 258 236 226 222 208 194 187 187 185 180 182 185 188 190 193 193 193 194 193 193 198 202
222 225 240 256 246 246 256 199 224 233 243 243 255 267 270 277 287 279 295 296 295 298 285 262 243 222 200 177 176 181 178 177 178 181 179 180 189 191 192 192 194 199 204 208
222 219 226 239 251 260 248 221 222 232 247 242 248 259 266 271 267 244 311 321 313 311 302 274 244 216 180 158 166 170 174 177 180 180 187 187 185 190 193 196 203 206 204 208
199 218 228 231 247 255 247 159 218 238 246 220 241 253 250 229 258 278 25 355 349 357 6 44 149 163 147 133 159 169 177 182 190 192 196 195 188 191 199 204 208 209 208 211
193 204 221 234 246 259 266 162 185 224 260 93 242 257 243 249 299 350 4 1 10 23 42 77 114 132 127 132 153 173 176 187 196 194 190 189 191 195 201 207 208 206 210 214
225 221 222 227 238 248 153 173 211 282 1 320 278 265 257 279 314 329 344 353 18 40 62 90 106 98 116 138 158 178 184 189 184 182 182 188 195 195 197 201 205 204 206 212
230 238 244 234 250 338 169 223 286 307 290 288 278 276 263 255 265 279 284 293 341 56 68 83 101 104 104 138 187 199 199 186 181 179 185 193 199 200 202 203 201 201 205 216
232 240 243 252 255 257 256 262 270 276 283 296 292 278 256 249 251 255 258 251 219 133 102 108 128 126 91 37 272 249 226 194 195 195 194 197 204 205 205 210 210 208 211 218
245 224 242 253 259 264 255 252 262 271 276 281 285 273 259 255 250 252 254 243 218 172 152 158 178 194 253 359 304 284 237 214 209 210 208 205 206 208 211 215 234 230 228 235
234 233 243 256 263 263 270 268 264 263 263 264 265 265 260 248 237 237 245 243 226 197 176 183 199 211 227 249 263 265 237 226 216 215 212 207 209 216 220 221 240 13 230 215
Height
1517 1516 1515 1515 1516 1516 1518 1520 1521 1520 1521 1523 1522 1521 1521 1524 1525 1526 1527 1528 1530 1532 1535 1536 1538 1539 1540 1541 1542 1543 1544 1545 1545 1545 1546 1546 1546 1546 1546 1546 1546 1546 1546 1545
1515 1514 1514 1515 1517 1518 1518 1520 1520 1520 1521 1522 1520 1519 1517 1519 1521 1522 1524 1525 1527 1530 1532 1534 1536 1537 1539 1540 1541 1542 1543 1543 1544 1544 1545 1545 1545 1546 1545 1545 1545 1545 1545 1545
1511 1512 1514 1516 1517 1518 1518 1518 1518 1520 1521 1520 1521 1517 1513 1514 1518 1520 1522 1523 1525 1527 1529 1531 1533 1535 1536 1537 1539 1540 1541 1542 1542 1543 1544 1544 1544 1545 1545 1545 1544 1544 1544 1544
1511 1512 1514 1515 1515 1515 1518 1516 1518 1520 1521 1518 1520 1520 1510 1510 1513 1516 1518 1520 1522 1524 1526 1528 1530 1532 1533 1535 1537 1538 1539 1540 1541 1542 1542 1543 1543 1544 1544 1544 1544 1543 1543 1543
1510 1511 1512 1514 1513 1514 1514 1516 1517 1518 1518 1519 1517 1519 1508 1508 1510 1510 1513 1516 1518 1520 1523 1525 1527 1529 1531 1532 1534 1535 1537 1538 1539 1540 1541 1541 1542 1543 1543 1543 1543 1543 1542 1542
1508 1511 1511 1510 1512 1514 1515 1517 1517 1517 1517 1523 1515 1518 1512 1503 1505 1506 1510 1513 1515 1517 1520 1522 1524 1526 1528 1530 1531 1533 1534 1536 1537 1538 1539 1540 1540 1541 1541 1541 1542 1542 1541 1541
1509 1509 1510 1511 1512 1514 1514 1516 1523 1524 1523 1518 1512 1515 1508 1502 1505 1507 1509 1511 1513 1515 1517 1519 1521 1522 1524 1526 1528 1530 1531 1533 1534 1535 1537 1538 1538 1539 1539 1540 1540 1540 1540 1540
1510 1511 1507 1508 1508 1509 1510 1511 1521 1527 1523 1514 1513 1512 1503 1504 1507 1508 1509 1510 1511 1513 1514 1516 1517 1519 1521 1523 1525 1527 1529 1530 1531 1533 1534 1535 1536 1537 1537 1538 1538 1538 1538 1538
1506 1507 1506 1507 1508 1507 1509 1509 1507 1512 1514 1518 1509 1504 1502 1503 1505 1506 1508 1509 1510 1511 1512 1514 1515 1517 1518 1520 1522 1523 1525 1527 1528 1530 1531 1533 1534 1535 1535 1536 1536 1536 1537 1536
1502 1506 1504 1507 1508 1509 1507 1506 1510 1513 1521 1521 1512 1507 1503 1502 1503 1504 1505 1507 1508 1509 1511 1512 1513 1514 1516 1517 1519 1521 1522 1524 1525 1527 1528 1530 1531 1532 1533 1533 1534 1534 1534 1534
1503 1505 1505 1505 1505 1505 1508 1509 1508 1508 1510 1517 1517 1509 1498 1500 1501 1502 1504 1506 1507 1508 1509 1510 1511 1512 1513 1515 1516 1517 1519 1521 1522 1524 1525 1527 1528 1530 1530 1531 1531 1532 1532 1532
1504 1502 1503 1502 1502 1504 1502 1502 1504 1511 1510 1509 1511 1507 1498 1500 1501 1503 1504 1505 1506 1506 1507 1508 1509 1510 1511 1512 1513 1514 1516 1518 1519 1520 1522 1523 1525 1527 1527 1528 1529 1529 1529 1529
1504 1503 1506 1505 1507 1505 1503 1502 1503 1503 1505 1507 1511 1506 1498 1500 1501 1502 1503 1504 1504 1505 1505 1505 1506 1507 1508 1509 1510 1511 1513 1514 1516 1517 1519 1520 1522 1523 1524 1525 1525 1526 1526 1527
1505 1500 1502 1505 1500 1499 1501 1503 1503 1504 1504 1503 1501 1499 1496 1498 1499 1501 1502 1502 1503 1503 1503 1504 1504 1505 1505 1506 1507 1508 1510 1511 1513 1514 1515 1517 1518 1519 1520 1521 1522 1523 1523 1524
1504 1499 1497 1497 1498 1499 1500 1500 1501 1501 1498 1499 1495 1494 1494 1495 1497 1498 1499 1500 1501 1501 1501 1502 1502 1502 1503 1504 1504 1506 1507 1508 1509 1510 1512 1513 1514 1516 1517 1518 1519 1519 1520 1520
1502 1500 1498 1498 1498 1499 1499 1497 1497 1498 1497 1495 1494 1494 1493 1495 1496 1497 1498 1498 1499 1499 1499 1500 1500 1500 1500 1501 1502 1503 1504 1505 1506 1507 1508 1510 1511 1512 1513 1514 1515 1516 1516 1517
1501 1500 1501 1498 1496 1499 1498 1491 1492 1494 1493 1493 1493 1492 1492 1493 1495 1496 1496 1496 1496 1496 1497 1497 1497 1498 1498 1498 1499 1500 1501 1502 1503 1504 1505 1507 1508 1509 1510 1511 1512 1512 1513 1514
1499 1499 1500 1498 1499 1504 1490 1489 1490 1491 1491 1491 1491 1491 1492 1493 1494 1494 1495 1495 1494 1494 1494 1494 1495 1495 1495 1496 1496 1497 1499 1500 1500 1501 1503 1504 1505 1506 1507 1508 1508 1509 1510 1510
1499 1499 1499 1498 1497 1492 1488 1489 1490 1490 1489 1488 1489 1490 1491 1492 1492 1492 1492 1493 1493 1492 1492 1492 1492 1492 1493 1493 1493 1494 1496 1497 1498 1499 1500 1501 1502 1503 1503 1504 1505 1506 1506 1507
1499 1498 1498 1497 1499 1495 1487 1487 1489 1490 1488 1487 1488 1489 1490 1491 1489 1488 1491 1490 1490 1490 1489 1489 1490 1490 1491 1490 1491 1492 1493 1494 1495 1496 1497 1498 1498 1499 1500 1501 1501 1502 1503 1503
1496 1497 1497 1494 1494 1486 1484 1488 1490 1492 1487 1487 1488 1488 1489 1489 1489 1490 1489 1489 1488 1488 1488 1487 1488 1488 1488 1488 1488 1489 1490 1491 1492 1493 1494 1495 1495 1496 1497 1498 1498 1499 1499 1499
1489 1491 1491 1490 1493 1489 1485 1487 1487 1485 1485 1486 1487 1488 1488 1488 1488 1488 1488 1487 1486 1486 1486 1486 1486 1486 1486 1486 1487 1487 1488 1488 1489 1490 1490 1491 1492 1493 1494 1494 1495 1495 1496 1496
1487 1486 1484 1485 1485 1484 1485 1485 1486 1486 1486 1486 1486 1486 1487 1486 1486 1486 1486 1485 1485 1484 1484 1484 1484 1484 1484 1484 1485 1485 1486 1486 1486 1487 1488 1488 1489 1490 1490 1491 1491 1492 1492 1493
1485 1487 1486 1484 1482 1483 1484 1484 1484 1485 1485 1484 1484 1484 1484 1484 1483 1483 1483 1483 1483 1482 1482 1482 1483 1483 1482 1482 1482 1483 1483 1483 1484 1484 1485 1485 1486 1487 1487 1488 1488 1489 1489 1489
1483 1485 1483 1481 1480 1482 1481 1482 1482 1482 1482 1482 1482 1482 1482 1482 1481 1481 1481 1481 1481 1480 1480 1481 1481 1481 1481 1481 1481 1481 1481 1481 1482 1482 1483 1483 1483 1483 1484 1484 1485 1485 1485 1486
1481 1481 1480 1477 1477 1478 1478 1479 1479 1479 1479 1479 1479 1479 1479 1479 1479 1479 1479 1479 1479 1479 1478 1478 1479 1479 1479 1479 1478 1478 1479 1479 1479 1480 1480 1480 1480 1480 1481 1481 1481 1481 1482 1481